Flag for Netherlands Weather past 2 weeks in Rotterdam, Netherlands

Now
41 °F

Clear.


Feels Like: 34 °F
Forecast: 38 / 44 °F
Wind: 13 mph from West

Location: Rotterdam Zestienhoven Airport

Current Time: Mar 3, 2015 at 1:57:13 AM

Latest Report: Mar 3, 2015 at 1:25 AM


Visibility: N/A

Pressure: 29.98 "Hg

Humidity: 70%

Dew point: 32 °F

Location of RotterdamLocation

Historic Weather in Rotterdam — Graph

°F

Rotterdam temperature yesterday

Maximum temperature yesterday: 46 °F (at 12:55 PM)
Minimum temperature yesterday: 39 °F (at 5:55 AM)
Average temperature yesterday: 42 °F

Past Weeks' High & Low Weather Summary

 TemperatureHumidityPressure
High50 °F (Mar 1, 11:25 AM)100% (Feb 16, 2:55 AM)30.74 "Hg (Feb 16, 2:55 AM)
Low27 °F (Feb 16, 1:25 AM)53% (Feb 18, 2:25 PM)29.27 "Hg (Feb 23, 3:25 AM)
Average41 °F84%29.88 "Hg
* Reported Feb 16 12:25 AM — Mar 3 12:25 AM, Rotterdam, Weather by CustomWeather, © 2015

Note: Actual official high and low records may vary slightly from our data, if they occured in-between our weather recording intervals... More about our weather records

Advertising

Rotterdam weather history for previous 24 hours

 ConditionsComfort  
Time TempWeatherWind HumidityBarometerVisibility
12:25 AM
Tue, Mar 3
39 °FChilly.12 mph75%29.95 "HgN/A
11:55 PM
Mon, Mar 2
41 °FClear.13 mph66%29.95 "HgN/A
11:25 PM41 °FQuite cool.12 mph61%29.95 "HgN/A
10:55 PM43 °FQuite cool.16 mph57%29.92 "HgN/A
10:25 PM43 °FQuite cool.15 mph57%29.92 "HgN/A
9:55 PM43 °FQuite cool.15 mph57%29.89 "HgN/A
9:25 PM41 °FClear.14 mph66%29.89 "HgN/A
8:55 PM41 °FClear.15 mph70%29.89 "HgN/A
8:25 PM41 °FQuite cool.14 mph70%29.86 "HgN/A
7:55 PM41 °FClear.17 mph66%29.86 "HgN/A
7:25 PM41 °FClear.18 mph66%29.83 "HgN/A
6:55 PM39 °FClear.20 mph75%29.80 "HgN/A
6:25 PM43 °FPassing clouds.21 mph61%29.77 "HgN/A
5:55 PM45 °FPassing clouds.22 mph57%29.77 "HgN/A
5:25 PM45 °FPassing clouds.23 mph53%29.74 "HgN/A
4:55 PM43 °FClear.21 mph66%29.74 "HgN/A
4:25 PM45 °FPassing clouds.25 mph61%29.71 "HgN/A
3:55 PM43 °FPassing clouds.18 mph71%29.71 "HgN/A
3:25 PM45 °FPassing clouds.26 mph61%29.71 "HgN/A
2:55 PM45 °FBroken clouds.24 mph66%29.68 "HgN/A
2:25 PM43 °FDrizzle. Broken clouds.20 mph76%29.68 "HgN/A
1:55 PM43 °FBroken clouds.16 mph81%29.65 "HgN/A
1:25 PM45 °FPartly sunny.20 mph76%29.65 "HgN/A
12:55 PM46 °FPassing clouds.17 mph62%29.65 "HgN/A
12:25 PM45 °FBroken clouds.20 mph71%29.65 "HgN/A
11:55 AM45 °FScattered clouds.20 mph71%29.65 "HgN/A
11:25 AM45 °FScattered clouds.21 mph71%29.65 "HgN/A
10:55 AM45 °FBroken clouds.17 mph71%29.62 "HgN/A
10:25 AM45 °FBroken clouds.20 mph76%29.62 "HgN/A
9:55 AM45 °FBroken clouds.16 mph71%29.62 "HgN/A
9:25 AM43 °FPartly sunny.15 mph76%29.62 "HgN/A
8:55 AM43 °FBroken clouds.14 mph76%29.59 "HgN/A
8:25 AM41 °FQuite cool.15 mph76%29.59 "HgN/A
7:55 AM41 °FClear.14 mph76%29.59 "HgN/A
7:25 AM41 °FClear.13 mph76%29.56 "HgN/A
6:55 AM39 °FChilly.13 mph81%29.56 "HgN/A
6:25 AM41 °FPassing clouds.16 mph70%29.56 "HgN/A
5:55 AM39 °FChilly.15 mph75%29.53 "HgN/A
5:25 AM41 °FPassing clouds.15 mph70%29.53 "HgN/A
4:55 AM41 °FClear.15 mph70%29.53 "HgN/A
4:25 AM41 °FClear.15 mph70%29.50 "HgN/A
3:55 AM41 °FClear.16 mph70%29.50 "HgN/A
3:25 AM41 °FMostly cloudy.18 mph70%29.50 "HgN/A
2:55 AM41 °FQuite cool.16 mph70%29.50 "HgN/A
2:25 AM41 °FPassing clouds.18 mph76%29.47 "HgN/A
1:55 AM43 °FQuite cool.18 mph71%29.47 "HgN/A
1:25 AM43 °FPassing clouds.20 mph71%29.45 "HgN/A
Weather by CustomWeather, © 2015

See weather overviewHow to use our weather pages